COSMOS 1275 DEB

Satellite information

Favourite Embed

Satellite Type and Status

DEBRISIN ORBIT

Key statistics

Satellite COSMOS 1275 DEB at a glance.

Uptime

16105

Days in orbit

Revolutions

≈ 13.9

Per day

Orbit

LEO

Low Earth Orbit

Inclination

82.9

Latest

Satellite identification and parameters

Extended collection of information and parameters for COSMOS 1275 DEB.

Object identification

Identified? True

Debris? True

Object name: COSMOS 1275 DEB

International designator: 1981-053JZ

Object number (NORAD): 15541

Object ID (CCSDS): 15541

Country: COMMONWEALTH OF INDEPENDENT STATES (CIS)

Current information (Y/N): Y

RCS size: SMALL

Orbital parameters

Period: 103.852 minutes

Inclination: 82.8883 deg

SMA: 7318.746 km

Apoapsis: 963.131 km

Periapsis: 918.091 km

RAAN: 239.525 deg

Eccentricy: 0.003077

Argument of periapsis: 259.8678 deg

Mean anomaly: 224.3768 deg

Mean motion: 13.8658898 rev/day

Mean motion (dot): 0.00000191 rev/day2

B* drag term: 0.00015095 1/REarth

Two-line elements (TLE)

Creation date: July 7, 2025, 5:18 a.m.

Reference frame: TEME

Reference center: EARTH

Epoch: July 6, 2025, 9:09 p.m. UTC

TLE line 0: 0 COSMOS 1275 DEB

TLE line 1: 1 15541U 81053JZ 25187.88171590 .00000191 00000-0 15095-3 0 9999

TLE line 2: 2 15541 82.8883 239.5250 0030770 259.8678 224.3768 13.86588980 73876

Live tracking on map

Real-time ground track for satellite COSMOS 1275 DEB.

In-orbit conjunctions

There are no conjunctions computed for COSMOS 1275 DEB, at the moment. Check back to stay up to date, as we update our databases every day.

Go to all conjunctions

Associated space launch

Navigation satellite providing location information for the Tsiklon-B navigation system

COSMOS 1275 DEB was lifted into orbit during the mission ‘Kosmos-3M | Parus 27’, on board a Kosmos-3M space rocket.

The launch took place on June 4, 1981, 3:41 p.m. from 132/2.

For more information about the launch, click the button.

Launch to space Kosmos-3M | Parus 27
Kosmos-3M | Parus 27

Agency: N/A

Status: Launch Successful

Launch date: June 4, 1981, 3:41 p.m. UTC

Rocket: Kosmos-3M

Launch pad: 132/2

Location: Plesetsk Cosmodrome, Russian Federation

...

Latest news about this satellite

There are no fresh news available about this satellite. Check back as we update our databases every day.


Newsletter sign-up

Weekly statistics, charts and insights to help you stay on top of the space industry.